Regional Weather Roundup
Issued by NWS Mt. Holly, NJ

Home | Current Version | Previous Version | Text Only | Print | Product List | Glossary On
Versions: 1 2 3 4 5 6 7 8 9 10 11 12 13 14 15 16 17 18 19 20 21 22 23 24 25 26 27 28 29 30 31 32 33 34 35 36 37 38 39 40 41 42 43 44 45 46 47 48 49 50
000
ASUS41 KPHI 010812
RWRPHI

REGIONAL WEATHER ROUNDUP
NATIONAL WEATHER SERVICE MOUNT HOLLY NJ
400 AM EDT SAT AUG 01 2015

NOTE:  "FAIR" INDICATES FEW OR NO CLOUDS BELOW 12,000 FEET WITH NO
SIGNIFICANT WEATHER AND/OR OBSTRUCTIONS TO VISIBILITY.

 * = STATION DOES NOT REPORT PRECIPITATION (E.G. RAIN, SNOW, ETC.)
        OR FOG.

NJZ015>026-010900-
SOUTHERN NEW JERSEY

CITY           SKY/WX    TMP DP  RH WIND       PRES   REMARKS
POMONA         CLEAR     73  66  78 SW6       29.84F
RIO GRANDE*    CLEAR     73  66  78 W6        29.86F
MILLVILLE      CLEAR     67  64  90 SW3       29.85F
WRIGHTSTOWN    CLEAR     69  64  84 CALM      29.80F
MOUNT HOLLY    CLEAR     69  63  81 CALM      29.82F
TRENTON        PTCLDY    71  61  70 SW3       29.82S

$$
NJZ001>014-010900-
NORTHERN NEW JERSEY

CITY           SKY/WX    TMP DP  RH WIND       PRES   REMARKS
SUSSEX         CLEAR     62  59  90 CALM      29.81F
ANDOVER*         N/A     63  62  97 CALM      29.82F
MORRISTOWN     CLEAR     64  61  88 CALM      29.81S
NEWARK         PTCLDY    75  60  59 SW10      29.79F
TETERBORO      MOCLDY    74  59  59 S3        29.78F
CALDWELL       CLEAR     71  59  65 VRB3      29.80F
SOMERVILLE     CLEAR     63  60  90 CALM      29.80S
ALLAIRE*       CLEAR     72  57  60 SW6       29.82F
TOMS RIVER*      N/A     66  61  82 SW5       29.83F

$$
PAZ043-044-047-054-055-060>062-066>071-010900-
EASTERN PENNSYLVANIA

CITY           SKY/WX    TMP DP  RH WIND       PRES   REMARKS
PHILADELPHIA   MOCLDY    75  66  73 SW7       29.83F
NORTH PHILA    PTCLDY    77  62  59 SW7       29.84S
DOYLESTOWN     CLEAR     68  60  75 S3        29.82F
QUAKERTOWN*    CLEAR     63  61  94 CALM      29.84S
POTTSTOWN      CLEAR     66  62  87 CALM      29.85S
LANCASTER      CLEAR     64  62  93 CALM      29.84F
COATESVILLE    PTCLDY    70  63  78 W3        29.86F
READING        CLEAR     68  62  81 CALM      29.82F
ALLENTOWN      CLEAR     65  61  87 CALM      29.82F
MOUNT POCONO   CLEAR     64  57  78 W7        29.87S
HAZLETON       CLEAR     70  59  68 SW3       29.89S
WILKES BARRE   CLEAR     66  59  78 S3        29.82F

$$
DEZALL-MDZ008-012-015-019-020-010900-
DELAWARE AND EASTERN MARYLAND

CITY           SKY/WX    TMP DP  RH WIND       PRES   REMARKS
WILMINGTON     CLOUDY    72  67  84 W7        29.84F
DOVER          CLEAR     72  68  89 SW8       29.83F
GEORGETOWN     CLEAR     69  65  86 SW3       29.87F
EASTON         CLEAR     75  68  77 W3        29.90F
PATUXENT       CLEAR     71  64  78 SW7       29.87F
OCEAN CITY     CLEAR     73  65  75 W7        29.86F
WALLOPS ISLAND CLEAR     74  68  81 SW7       29.88F
CAMBRIDGE      CLEAR     70  64  83 CALM      29.86F
SALISBURY      CLEAR     70  67  90 CALM      29.87F

$$
PAZ001-021-NYZ056-072-MDZ011-DCZ001-010900-
OTHER NEARBY LOCATIONS

CITY           SKY/WX    TMP DP  RH WIND       PRES   REMARKS
HARRISBURG     PTCLDY    71  63  75 SE6       29.83F
STATE COLLEGE  PTCLDY    66  60  80 W8        29.87S
WILLIAMSPORT   MOCLDY    66  61  84 CALM      29.81F
BINGHAMTON     CLOUDY    66  59  78 SW8       29.83R
NEW YORK CITY  MOCLDY    78  57  48 CALM      29.82F
BALTIMORE      PTCLDY    71  63  75 CALM      29.86S
WASHINGTON DC  PTCLDY    75  65  70 S5        29.88S

$$


USA.gov is the U.S. government's official web portal to all federal, state and local government web resources and services.